Hattiesburg, MS

4:59 AM CDT on August 17, 2017 (GMT -0500)
Chain Municipal

Weather History for KHBG - December, 2005

Change the Weather History Date:

Saturday, December 31, 2005

  Actual Average Record
Temperature  
Mean Temperature 62 °F 49 °F  
Max Temperature 70 °F 60 °F 80 °F (1971)
Min Temperature 55 °F 38 °F 14 °F (1983)
Degree Days  
Heating Degree Days 2 16  
Month to date heating degree days 457  
Since 1 July heating degree days 785  
Cooling Degree Days 0 0  
Month to date cooling degree days 13  
Year to date cooling degree days 2403  
Growing Degree Days 12 (Base 50)    
Moisture  
Dew Point 57 °F    
Average Humidity 85    
Maximum Humidity 100    
Minimum Humidity 56    
Precipitation  
Precipitation 0.00 in 0.13 in 2.30 in (2016)
Month to date precipitation 4.91  
Year to date precipitation 59.17  
Sea Level Pressure  
Sea Level Pressure 29.93 in    
Wind  
Wind Speed 5 mph (SSW)    
Max Wind Speed 13 mph    
Max Gust Speed -    
Visibility 6 miles    
Events Fog    
T = Trace of Precipitation, MM = Missing Value Source: NWS Daily Summary

Daily Weather History Graph

Daily Weather History Graph

Search for Another Location

Airport or City:

Trip Planner

Search our weather history database for the weather conditions in past years. The results will help you decide how hot, cold, wet, or windy it might be!

Date:

Astronomy

Dec. 31, 2005 Rise Set
Actual Time 6:55 AM CST 5:04 PM CST
Civil Twilight 6:28 AM CST 5:31 PM CST
Nautical Twilight 5:58 AM CST 6:01 PM CST
Astronomical Twilight 5:29 AM CST 6:31 PM CST
Moon 7:43 AM CST (12/31) 5:43 PM CST (12/31)
Length of Visible Light 11h 02m
Length of Day
10h 09m
New Moon, 1% of the Moon is Illuminated
Dec 31
New Moon
Jan 6
First Quarter
Jan 14
Full
Jan 22
Last Quarter
Jan 29
New

Hourly Weather History & Observations

Time (CST) Temp. Dew Point Humidity Pressure Visibility Wind Dir Wind Speed Gust Speed Precip Events Conditions
12:53 AM 61.0 °F 59.0 °F 93% 29.87 in 9.0 mi WSW 6.9 mph - N/A   Mostly Cloudy
12:58 AM 60.8 °F 59.0 °F 94% 29.88 in 9.0 mi NW 6.9 mph - N/A   Overcast
1:53 AM 62.1 °F 59.0 °F 90% 29.88 in 9.0 mi WSW 3.5 mph - N/A   Overcast
2:22 AM 62.6 °F 59.0 °F 88% 29.88 in 8.0 mi SW 5.8 mph - 0.00 in   Overcast
2:53 AM 62.1 °F 60.1 °F 93% 29.88 in 6.0 mi WSW 4.6 mph - 0.00 in   Overcast
3:36 AM 62.6 °F 60.8 °F 94% 29.89 in 5.0 mi WSW 5.8 mph - N/A   Mostly Cloudy
3:53 AM 62.1 °F 60.1 °F 93% 29.88 in 5.0 mi WSW 4.6 mph - N/A   Overcast
4:06 AM 62.6 °F 60.8 °F 94% 29.89 in 4.0 mi West 3.5 mph - N/A   Overcast
4:36 AM 62.6 °F 60.8 °F 94% 29.90 in 4.0 mi Calm Calm - N/A   Mostly Cloudy
4:53 AM 62.1 °F 60.1 °F 93% 29.91 in 3.0 mi NW 3.5 mph - N/A   Overcast
5:17 AM 62.6 °F 60.8 °F 94% 29.92 in 4.0 mi NNW 3.5 mph - N/A   Overcast
5:53 AM 61.0 °F 59.0 °F 93% 29.94 in 3.0 mi Calm Calm - N/A   Overcast
6:15 AM 60.8 °F 59.0 °F 94% 29.94 in 4.0 mi Calm Calm - N/A   Overcast
6:53 AM 60.1 °F 57.0 °F 90% 29.95 in 5.0 mi North 4.6 mph - N/A   Scattered Clouds
7:53 AM 59.0 °F 55.9 °F 90% 29.98 in 6.0 mi NW 4.6 mph - N/A   Overcast
8:53 AM 59.0 °F 55.0 °F 87% 30.00 in 6.0 mi Calm Calm - N/A   Scattered Clouds
9:53 AM 63.0 °F 53.1 °F 70% 30.00 in 9.0 mi NE 5.8 mph - N/A   Scattered Clouds
10:53 AM 64.0 °F 51.1 °F 63% 30.00 in 10.0 mi East 4.6 mph - N/A   Mostly Cloudy
11:53 AM 66.9 °F 52.0 °F 59% 29.96 in 10.0 mi Variable 3.5 mph - N/A   Mostly Cloudy
12:08 PM 68.0 °F 51.8 °F 56% 29.96 in 10.0 mi Variable 4.6 mph - N/A   Mostly Cloudy
12:53 PM 68.0 °F 54.0 °F 61% 29.94 in 10.0 mi Calm Calm - N/A   Mostly Cloudy
1:53 PM 69.1 °F 55.0 °F 61% 29.92 in 10.0 mi Calm Calm - N/A   Mostly Cloudy
2:53 PM 70.0 °F 55.9 °F 61% 29.91 in 10.0 mi ESE 5.8 mph - N/A   Overcast
3:53 PM 70.0 °F 57.0 °F 63% 29.90 in 10.0 mi East 3.5 mph - N/A   Partly Cloudy
4:53 PM 68.0 °F 57.0 °F 68% 29.91 in 9.0 mi Calm Calm - N/A   Clear
5:53 PM 63.0 °F 57.0 °F 81% 29.93 in 8.0 mi Calm Calm - N/A   Mostly Cloudy
6:53 PM 61.0 °F 57.0 °F 87% 29.94 in 7.0 mi SSE 3.5 mph - N/A   Mostly Cloudy
7:53 PM 57.9 °F 55.0 °F 90% 29.94 in 6.0 mi Calm Calm - N/A   Clear
8:53 PM 55.9 °F 53.1 °F 90% 29.93 in 7.0 mi Calm Calm - N/A   Partly Cloudy
9:26 PM 55.4 °F 51.8 °F 88% 29.93 in 6.0 mi SSE 4.6 mph - N/A   Scattered Clouds
9:34 PM 57.2 °F 55.4 °F 94% 29.93 in 5.0 mi South 5.8 mph - N/A   Mostly Cloudy
9:41 PM 60.8 °F 57.2 °F 88% 29.93 in 1.5 mi South 6.9 mph - N/A   Mostly Cloudy
9:53 PM 61.0 °F 60.1 °F 97% 29.93 in 0.5 mi South 10.4 mph - N/A Fog Fog
10:26 PM 60.8 °F 60.8 °F 100% 29.94 in 1.8 mi South 10.4 mph - N/A   Overcast
10:33 PM 60.8 °F 60.8 °F 100% 29.94 in 2.0 mi South 11.5 mph - N/A   Overcast
10:53 PM 61.0 °F 60.1 °F 97% 29.92 in 2.5 mi South 12.7 mph - N/A   Overcast
11:53 PM 61.0 °F 60.1 °F 97% 29.91 in 2.5 mi South 6.9 mph - N/A   Overcast